Regional Weather Roundup
Issued by NWS Upton, NY

Current Version | Previous Version | Text Only | Print | Product List | Glossary On
Versions: 1 2 3 4 5 6 7 8 9 10 11 12 13 14 15 16 17 18 19 20 21 22 23 24 25 26 27 28 29 30 31 32 33 34 35
000 ASUS41 KOKX 200009 RWROKX REGIONAL WEATHER ROUNDUP NATIONAL WEATHER SERVICE NEW YORK NY 700 PM EST SUN NOV 19 2017 NOTE: "FAIR" INDICATES FEW OR NO CLOUDS BELOW 12,000 FEET WITH NO SIGNIFICANT WEATHER AND/OR OBSTRUCTIONS TO VISIBILITY. NYZ071-072-176-178-NJZ106-104-200100- NEW YORK CITY METRO AREA CITY SKY/WX TMP DP RH WIND PRES REMARKS Central Park PTCLDY 45 24 43 W9 29.71 Bronx Bot Gard NOT AVBL LaGuardia APRT MOCLDY 47 26 44 NW13 29.69R Kennedy INTL MOCLDY 46 25 43 NW12 29.70R Breezy Point NOT AVBL Newark/Liberty MOCLDY 47 25 42 W9G17 29.70R Teterboro PTCLDY 44 25 47 NW8 29.69R $$ NYZ177-179-078>081-200100- LONG ISLAND NEW YORK CITY SKY/WX TMP DP RH WIND PRES REMARKS Jones Beach NOT AVBL Matinecock PT NOT AVBL Farmingdale PTCLDY 44 25 47 NW6 29.69R MacArthur/ISP PTCLDY 44 25 47 NW16G24 29.68R Shirley CLEAR 43 26 51 NW15G30 29.68R Mt Sinai Harb NOT AVBL Westhampton MOCLDY 43 24 47 W17G33 29.67R East Hampton CLOUDY 43 26 51 W13G21 29.64R Southold NOT AVBL Montauk N/A 47 28 47 NW15G29 29.64 $$ NYZ052-065-067-200100- HUDSON VALLEY CITY SKY/WX TMP DP RH WIND PRES REMARKS White Plains N/A 42 24 49 W13G21 29.66R Larchmont Harb NOT AVBL Croton On Huds NOT AVBL Newburgh PTCLDY 39 27 60 NW12G21 29.66R WCI 32 Montgomery CLEAR 39 25 57 W8 29.67R WCI 33 Poughkeepsie CLEAR 40 21 46 W12 29.65R WCI 33 Albany MOCLDY 36 26 67 W9 29.64R WCI 29 $$ NJZ001-105-106-008-010-013-015-019>022-104-200100- NEW JERSEY CITY SKY/WX TMP DP RH WIND PRES REMARKS Newark/Liberty MOCLDY 47 25 42 W9G17 29.70R Teterboro PTCLDY 44 25 47 NW8 29.69R Caldwell MOCLDY 44 25 47 NW7 29.70R Somerville CLOUDY 45 29 53 VRB6G17 29.70R Linden CLOUDY 46 25 42 NW6 29.70R Perth Amboy NOT AVBL Sussex CLOUDY 42 26 53 CALM 29.69R Andover N/A 42 26 53 NW9 29.69 Trenton CLOUDY 46 26 45 W7G17 29.73R Millville MOCLDY 47 29 49 W14G22 29.80R Atlantic City PTCLDY 46 27 47 W15G22 29.78R Wrightstown CLOUDY 45 25 45 W16G22 29.72R Toms River CLOUDY 45 26 47 W16G23 29.74R Belmar CLOUDY 46 29 51 W20G26 29.73R $$ PAZ047>061-062-071-200100- EASTERN PENNSYLVANIA CITY SKY/WX TMP DP RH WIND PRES REMARKS Philadelphia MOCLDY 47 25 42 W13 29.79R Allentown MOCLDY 43 24 47 W9 29.73R Scranton CLOUDY 39 30 70 W10 29.71R WCI 32 $$ CTZ002-004>006-009-010-012-RIZ004-006-007-MAZ004-011-015-200100- SOUTHERN NEW ENGLAND IN CT CITY SKY/WX TMP DP RH WIND PRES REMARKS Bradley INTL MOCLDY 41 25 53 W13 29.62R Hartford MOCLDY 43 25 49 NW10 29.63R Danbury PTCLDY 42 22 44 W17G24 29.66R Wtrbury/Oxford CLOUDY 40 25 55 W8 29.63R WCI 34 Norwalk Harbor NOT AVBL Bridgeport MOCLDY 44 24 45 NW13G24 29.67R Meriden CLOUDY 42 24 49 NW8 29.64R New Haven CLOUDY 45 27 49 W8 29.66R Chester CLOUDY 43 25 49 NW9G18 29.62R Groton MOCLDY 44 25 47 NW10G24 29.62R Wilimantic CLOUDY 43 26 51 NW8G21 29.62R IN RI CITY SKY/WX TMP DP RH WIND PRES REMARKS Providence PTCLDY 41 27 57 NW20G26 29.59R Block Island CLEAR 44 29 55 NW21G30 29.61R Westerly PTCLDY 44 26 49 W13G25 29.62R IN MA CITY SKY/WX TMP DP RH WIND PRES REMARKS Boston PTCLDY 41 26 55 W23G31 29.53R Worcester CLOUDY 35 22 58 W15G26 29.54R WCI 25 Westfield CLOUDY 39 26 59 NW16 29.61R WCI 30 Provincetown CLEAR 42 30 62 W28G35 29.52R Nantucket CLEAR 44 32 62 NW13G24 29.56R $$ ANZ330-335-338-340-345-350-353-355-200100- COASTAL MARINE OBSERVATIONS STATION/POSITION TIME SKY/WX TEMP WIND PRES VSBY WAVE AIR SEA DIR/SP/G HT/PER (UTC) (F) (DEG/KT/KT) (MB) (MI) (FT/S) NY HARB ENTRANCE 2250 50 57 310/ 19/ 25 1003.6 4/ 9 20 S FIRE ISLAND 2250 48 57 320/ 21/ 27 1004.0 8/ 6 GREAT SOUTH BAY 2330 45 48 300/ 16/ 23 N/A HUDSON CANYON 2250 53 60 290/ 23/ 29 1003.2 14/ 9 KINGS POINT 2324 46 52 350/ 15/ 19 1005.8 EXECUTION ROCKS 2330 46 290/ 14/ 19 N/A WESTERN LI SOUND 2249 46 290/ 16/ 21 N/A 2/ 3 CENTRAL LI SOUND NOT AVBL ROBBINS REEF 2348 47 300/ 10/ 12 1005.9 $$ >>>>>>>>>>>>>>>>>>>>>>>>>>>> KEY <<<<<<<<<<<<<<<<<<<<<<<<<<< > < > SKY/WX - Sky Condition/Present Weather < > TMP - Temperature in Fahrenheit < > DP - Dew Point in Fahrenheit < > RH - Relative Humidity in Percent < > WIND - Direction (from) and Speed in MPH < > PRES - Mean Sea Level Pressure (inches of Hg) < > WCI - Wind Chill Index < > VSB - VISIBILITY IN MILES < > HX - HEAT INDEX < > TC - TEMPERATURE IN CELSIUS < > VRB - VARIABLE WIND DIRECTION < > < >>>>>>>>>>>>>>>>>>>>>>>>>>>> KEY <<<<<<<<<<<<<<<<<<<<<<<<<<<

USA.gov is the U.S. government's official web portal to all federal, state and local government web resources and services.